Location: Bednik
(45.3500°N, 16.3833°E)
Time: 17:16:49
(UTC+00:00)

Cosmos 1697 Rocket - Pass Details

Date: 08 August 2020
Orbit: 834 x 842 km, 71.0° (Epoch: 25 September)

Event Time Altitude Azimuth Distance (km) Brightness Sun altitude
Rises 19:08:37 0° 337° (NNW) 3,391 6.9 -9.5°
Reaches altitude 10° 19:11:08 10° 342° (NNW) 2,453 6.0 -9.9°
Maximum altitude 19:16:38 54° 59° (ENE) 1,008 3.0 -10.7°
Enters shadow 19:21:14 15° 134° (SE) 2,118 4.1 -11.3°
